Location: Unspecified
(43.4680°N, 87.1740°E)
Time: 10:02:39
(UTC+00:00)

STARLINK-1074 - Pass Details

Date: 17 January 2020
Orbit: 349 x 350 km, 53.0° (Epoch: 19 February)

Event Time Altitude Azimuth Distance (km) Brightness Sun altitude
Rises 12:54:50 0° 249° (WSW) 2,146 8.1 -20.1°
Reaches altitude 10° 12:56:53 10° 256° (WSW) 1,307 6.7 -20.4°
Enters shadow 12:59:18 40° 306° (NW) 530 3.8 -20.9°
